Location: *
(41.7492°S, 135.4150°W)
Time: 04:15:05
(UTC+00:00)

TIGRISAT - Pass Details

Date: 06 July 2022
Orbit: 603 x 686 km, 97.7° (Epoch: 08 August)

Event Time Altitude Azimuth Distance (km) Brightness Sun altitude
Rises 14:48:12 0° 159° (SSE) 3,089 ? -18.1°
Reaches altitude 10° 14:50:39 10° 150° (SSE) 2,159 ? -17.7°
Maximum altitude 14:55:00 35° 84° (E) 1,095 ? -16.9°
Drops below altitude 10° 14:59:13 10° 17° (NNE) 2,097 ? -16.2°
Sets 15:01:34 0° 8° (N) 2,988 ? -15.7°
